Location: Ferma
(41.9500°N, 44.5167°E)
Time: 03:46:20
(UTC+00:00)

NOSS 2-3 (D) - Pass Details

Date: 02 June 2022
Orbit: 536 x 1674 km, 63.3° (Epoch: 02 June)

Event Time Altitude Azimuth Distance (km) Brightness Sun altitude
Rises 17:17:27 0° 331° (NNW) 3,348 8.8 -7.8°
Reaches altitude 10° 17:20:00 10° 343° (NNW) 2,572 7.7 -8.1°
Maximum altitude 17:25:15 29° 43° (NE) 1,854 6.0 -8.9°
Drops below altitude 10° 17:31:49 10° 100° (E) 3,277 6.7 -9.8°
Enters shadow 17:32:55 - 104° (ESE) 3,614 6.9 -10.0°
